Temp
59 59 59 59 59 59 59 59 59 59 59 60 60 60 60 59 58 49 46 61 58 68 69 65 65 66 64 60 62 59 48 45 52 55 59 65 64 69 73 71 76 78 76 79 77
59 59 59 59 59 59 59 59 59 59 59 59 60 60 59 59 50 46 59 66 68 70 64 62 60 63 57 56 57 54 45 49 58 59 58 62 62 65 67 67 69 72 77 77 76
59 59 59 59 58 58 58 58 58 59 59 59 59 59 59 58 47 60 70 68 69 69 64 64 63 61 52 53 53 51 49 55 59 62 62 61 62 66 64 63 68 68 75 75 72
59 59 59 59 58 58 58 58 59 59 59 59 59 59 59 54 47 61 73 70 70 66 64 61 57 52 49 50 55 49 58 60 60 64 61 62 65 61 64 68 72 74 74 73 73
58 58 58 58 58 57 57 58 58 58 58 58 59 59 50 47 54 67 71 71 66 66 62 58 54 52 50 51 54 51 57 60 63 62 61 64 62 63 63 70 72 72 73 72 72
57 57 57 57 57 58 58 58 58 57 58 58 58 59 47 48 68 69 66 65 65 61 63 60 58 59 53 50 51 55 54 57 58 59 59 60 63 62 66 72 71 70 69 70 70
57 57 57 57 57 57 58 57 57 57 57 58 59 57 46 56 67 67 66 63 66 67 63 64 63 59 57 51 54 54 49 54 57 57 58 59 57 57 67 69 69 70 70 68 68
57 57 57 57 57 57 57 57 57 57 58 58 60 51 46 65 64 64 64 65 68 68 66 68 66 57 54 56 55 49 47 42 53 56 61 59 50 61 64 63 65 68 69 69 68
57 57 56 57 57 57 57 56 57 58 59 60 48 46 51 68 65 69 68 66 68 68 66 75 63 53 55 47 43 44 39 41 50 55 56 55 49 60 61 61 61 62 64 67 68
57 57 56 56 56 56 55 56 59 58 58 59 59 48 58 62 69 70 68 69 66 65 62 60 52 48 44 42 35 38 38 42 44 52 52 51 50 57 61 58 59 59 60 62 64
57 57 56 56 56 55 51 49 51 49 51 55 57 56 63 71 72 68 70 66 64 59 50 51 46 42 47 48 49 47 44 44 49 55 50 49 49 54 58 57 58 58 58 57 58
57 57 57 56 56 55 50 52 58 57 49 58 59 60 65 68 61 65 72 61 57 50 50 47 42 52 53 52 49 47 43 43 49 54 50 49 48 53 55 56 57 59 58 58 58
56 56 56 56 55 50 50 59 62 59 48 56 59 59 61 64 59 61 68 61 55 49 47 44 50 57 54 50 48 44 42 44 46 50 50 46 43 49 55 55 59 59 59 59 60
56 56 56 55 51 51 55 61 60 59 43 52 56 61 63 63 58 68 69 63 53 51 49 47 53 54 50 49 50 41 52 51 49 43 36 47 37 43 49 51 54 57 57 59 59
55 56 56 55 46 52 60 57 57 58 32 58 59 70 63 60 61 62 68 62 53 52 51 48 49 48 47 51 53 48 53 50 48 41 36 39 32 40 45 48 52 53 56 57 59
55 56 55 49 45 53 57 56 59 43 33 54 62 60 57 59 60 62 62 64 61 53 50 51 55 55 53 56 56 55 48 43 38 35 29 39 36 38 44 50 50 54 56 59 58
55 55 52 54 53 54 55 56 40 34 56 52 56 60 57 54 56 58 55 51 48 40 40 48 51 55 58 50 54 47 39 29 28 28 32 42 36 44 48 53 53 55 57 57 56
53 52 51 53 50 54 55 48 34 47 49 59 57 58 53 56 54 54 52 48 52 47 40 38 40 50 56 52 50 43 41 31 25 25 34 39 32 40 51 55 55 54 53 54 53
51 48 48 53 52 51 51 37 39 46 55 53 54 49 50 55 55 54 50 50 52 49 41 36 39 55 58 56 53 44 38 43 35 30 25 32 37 46 51 51 50 50 52 52 52
44 44 51 57 55 54 46 41 45 55 57 56 47 51 46 50 50 50 50 57 55 57 51 45 36 51 56 57 55 51 53 39 36 28 23 30 31 35 44 46 47 47 48 49 52
44 45 57 57 56 50 39 43 50 58 57 53 50 48 48 46 48 48 49 53 56 54 54 50 41 43 48 47 46 45 43 40 40 35 28 28 31 41 43 44 45 47 49 49 50
42 43 57 57 45 39 39 48 53 54 58 55 54 51 48 48 45 47 48 51 56 55 47 49 43 37 43 49 51 47 42 41 32 30 32 27 32 48 44 45 46 47 50 51 52
38 39 53 55 41 39 44 49 52 51 50 52 50 52 51 46 41 46 49 57 56 53 48 47 39 30 35 43 46 43 43 40 38 34 29 26 32 47 48 47 50 47 49 49 52
40 37 42 45 49 43 39 42 43 53 51 52 50 52 46 44 48 39 45 52 55 54 56 51 37 35 30 36 41 39 41 41 38 30 28 31 36 41 45 47 50 47 46 47 50
39 35 37 32 38 39 40 41 38 39 48 51 44 43 41 34 40 40 45 46 51 54 50 44 32 36 39 43 44 41 40 41 34 36 31 36 34 41 39 40 43 45 47 49 50
36 35 37 35 37 38 39 38 38 41 41 42 40 44 43 34 40 38 42 43 41 48 44 41 32 36 35 42 40 37 40 40 39 39 35 36 34 37 40 43 47 44 46 47 47
39 41 42 41 39 36 37 39 40 41 42 46 42 40 40 44 47 47 46 46 45 42 39 37 34 30 29 37 35 30 36 38 38 38 36 30 36 39 40 43 44 46 48 46 47
MSLP
1017.51 1017.19 1016.85 1016.61 1016.33 1016.07 1015.78 1015.51 1015.30 1015.09 1014.85 1014.61 1014.32 1014.08 1013.89 1013.78 1013.49 1013.31 1012.47 1009.84 1009.87 1009.62 1009.63 1009.59 1009.69 1009.65 1009.81 1010.12 1010.19 1010.76 1011.97 1012.36 1011.35 1010.44 1009.27 1008.54 1008.38 1007.68 1007.23 1007.10 1006.81 1006.06 1006.11 1005.57 1005.65
1017.38 1016.95 1016.65 1016.41 1016.15 1015.87 1015.61 1015.36 1015.05 1014.86 1014.63 1014.35 1014.09 1013.94 1013.83 1013.61 1013.29 1012.37 1009.24 1009.14 1009.23 1009.38 1009.77 1009.54 1009.71 1009.79 1010.23 1010.26 1010.49 1010.97 1011.86 1011.54 1010.77 1009.84 1009.27 1008.97 1008.72 1008.29 1007.77 1007.18 1007.15 1006.89 1006.33 1005.96 1006.18
1017.24 1016.80 1016.43 1016.14 1015.96 1015.71 1015.40 1015.11 1014.84 1014.57 1014.36 1014.11 1013.98 1013.76 1013.70 1013.55 1012.90 1009.39 1008.00 1008.64 1008.98 1009.37 1009.40 1009.51 1009.63 1009.73 1010.25 1010.40 1010.75 1011.08 1011.26 1010.73 1010.08 1009.58 1009.47 1009.07 1008.69 1008.35 1007.89 1007.57 1006.99 1006.79 1006.92 1006.42 1006.75
1017.11 1016.67 1016.27 1015.94 1015.73 1015.45 1015.17 1014.81 1014.54 1014.33 1014.18 1013.97 1013.77 1013.68 1013.49 1013.34 1011.39 1008.48 1007.81 1008.50 1009.00 1009.33 1009.48 1009.61 1009.79 1010.03 1010.54 1010.62 1010.64 1010.84 1010.53 1010.21 1009.62 1009.43 1009.37 1009.08 1008.25 1008.20 1008.08 1007.47 1006.89 1006.63 1007.15 1006.94 1007.11
1016.94 1016.53 1016.15 1015.81 1015.47 1015.19 1014.90 1014.55 1014.32 1014.11 1013.99 1013.87 1013.75 1013.67 1013.51 1012.48 1009.86 1008.30 1008.13 1008.56 1009.03 1009.32 1009.50 1009.80 1009.90 1010.20 1010.25 1010.23 1010.38 1010.54 1010.21 1009.99 1009.51 1009.37 1009.27 1008.80 1008.29 1007.99 1007.67 1007.11 1006.37 1006.49 1006.74 1006.99 1006.98
1016.71 1016.29 1015.95 1015.59 1015.22 1014.85 1014.56 1014.28 1014.00 1013.86 1013.79 1013.71 1013.68 1013.65 1013.43 1011.17 1008.12 1008.26 1008.43 1008.83 1008.91 1009.15 1009.31 1009.43 1009.48 1009.61 1009.93 1010.21 1010.43 1010.21 1010.02 1009.77 1009.35 1009.07 1008.87 1008.65 1008.01 1007.74 1007.26 1006.58 1006.37 1006.08 1006.05 1006.35 1006.63
1016.48 1016.03 1015.64 1015.29 1014.91 1014.54 1014.14 1013.87 1013.72 1013.58 1013.51 1013.51 1013.43 1013.50 1012.88 1009.43 1008.20 1008.33 1008.56 1008.66 1008.75 1008.85 1009.05 1009.06 1009.03 1009.36 1009.64 1010.11 1010.17 1010.18 1010.25 1010.01 1009.50 1008.96 1008.62 1008.31 1007.97 1007.93 1007.06 1006.68 1006.47 1006.21 1006.01 1006.04 1006.43
1016.36 1015.85 1015.35 1014.92 1014.55 1014.17 1013.84 1013.49 1013.26 1013.25 1013.23 1013.29 1013.31 1013.26 1011.38 1008.39 1008.22 1008.41 1008.47 1008.54 1008.53 1008.58 1008.65 1008.53 1008.87 1009.38 1009.71 1010.21 1010.52 1010.67 1010.93 1010.67 1009.66 1008.99 1008.30 1008.37 1008.09 1007.58 1007.24 1007.11 1007.09 1006.71 1006.46 1006.35 1006.18
1016.23 1015.59 1015.07 1014.60 1014.15 1013.83 1013.52 1013.06 1012.75 1012.75 1012.90 1013.03 1013.38 1012.91 1010.05 1008.11 1008.03 1007.49 1007.73 1007.99 1008.01 1008.17 1008.43 1008.44 1008.86 1009.90 1010.23 1010.85 1011.50 1011.55 1011.67 1011.08 1010.08 1008.85 1008.69 1008.66 1008.45 1007.60 1007.39 1007.41 1007.67 1007.43 1006.97 1006.73 1006.44
1016.14 1015.44 1014.76 1014.32 1013.91 1013.49 1013.23 1012.57 1012.31 1012.59 1012.93 1013.08 1012.77 1012.49 1009.48 1007.91 1007.22 1007.10 1007.25 1007.66 1007.91 1008.16 1008.50 1008.87 1009.79 1010.53 1011.40 1011.87 1012.26 1012.11 1011.83 1011.27 1010.65 1009.44 1009.14 1009.01 1009.07 1008.31 1007.47 1007.67 1007.66 1007.69 1007.37 1007.21 1007.00
1015.71 1015.17 1014.55 1013.99 1013.62 1013.32 1013.14 1012.97 1012.77 1012.59 1012.26 1010.92 1010.44 1009.85 1008.44 1007.31 1006.68 1006.83 1007.03 1007.69 1008.07 1008.55 1009.23 1009.78 1010.51 1010.99 1011.17 1011.47 1011.55 1011.68 1011.69 1011.48 1010.53 1009.35 1009.59 1009.25 1009.13 1008.82 1008.14 1007.73 1007.49 1007.50 1007.46 1007.43 1007.14
1015.44 1014.78 1014.18 1013.60 1013.26 1013.00 1013.08 1012.45 1011.16 1011.07 1010.71 1009.30 1008.89 1008.74 1007.92 1007.52 1007.33 1006.75 1006.77 1007.70 1008.33 1009.04 1009.61 1010.45 1010.54 1010.16 1010.57 1010.95 1011.28 1011.49 1011.53 1011.13 1010.38 1009.23 1009.55 1009.17 1009.17 1008.77 1008.34 1007.80 1007.51 1007.57 1007.31 1007.13 1006.78
1015.25 1014.51 1013.79 1013.17 1012.84 1012.76 1012.30 1011.13 1010.39 1010.68 1010.70 1008.36 1007.85 1007.56 1007.23 1007.46 1007.31 1006.77 1006.85 1007.37 1008.11 1009.08 1009.75 1010.39 1009.62 1009.54 1010.15 1010.43 1010.81 1010.81 1011.03 1010.63 1010.32 1009.59 1009.36 1009.43 1009.32 1008.71 1008.08 1007.69 1007.29 1006.98 1006.88 1006.76 1006.54
1015.09 1014.39 1013.65 1012.97 1012.89 1012.27 1011.43 1010.35 1010.29 1010.45 1010.18 1007.97 1007.02 1006.20 1006.55 1006.77 1006.73 1006.03 1006.32 1007.15 1007.94 1008.62 1009.64 1009.87 1008.93 1009.20 1009.53 1009.77 1009.96 1010.16 1009.85 1009.94 1010.20 1010.41 1010.54 1009.90 1009.21 1008.90 1008.12 1007.80 1007.41 1007.00 1006.90 1006.45 1006.20
1014.81 1014.13 1013.56 1013.33 1013.08 1011.99 1010.55 1010.21 1010.11 1010.42 1009.43 1006.98 1006.19 1005.41 1005.93 1006.31 1006.10 1005.93 1005.95 1006.64 1007.43 1008.30 1009.17 1008.87 1008.60 1008.78 1008.97 1008.61 1009.07 1009.24 1009.36 1009.88 1010.26 1010.72 1010.91 1010.62 1010.71 1008.84 1008.39 1007.82 1007.29 1006.95 1006.60 1006.20 1006.01
1014.29 1013.60 1013.27 1013.13 1013.04 1010.79 1010.05 1009.89 1010.10 1010.74 1008.41 1006.32 1005.69 1005.69 1006.12 1005.98 1005.87 1005.73 1006.04 1006.35 1006.98 1008.17 1008.59 1008.38 1008.21 1008.14 1007.86 1007.87 1008.39 1008.77 1009.47 1010.43 1011.11 1011.68 1011.52 1010.90 1010.53 1009.03 1008.41 1007.37 1006.84 1006.41 1006.18 1005.88 1005.78
1013.82 1012.72 1012.63 1012.25 1011.24 1010.27 1010.22 1010.30 1010.79 1009.98 1007.73 1007.09 1006.38 1005.91 1005.92 1006.02 1005.97 1006.02 1006.36 1006.93 1007.46 1008.30 1008.51 1008.20 1007.89 1007.41 1007.43 1007.85 1007.99 1008.88 1010.15 1011.67 1012.04 1012.31 1010.93 1010.28 1009.94 1008.32 1007.47 1006.71 1006.47 1006.51 1006.23 1005.87 1005.67
1013.08 1011.75 1011.15 1010.87 1010.52 1010.55 1010.43 1011.06 1010.78 1009.25 1008.24 1007.42 1006.90 1006.43 1006.27 1006.11 1006.26 1006.26 1006.63 1007.05 1007.14 1007.88 1008.40 1008.54 1007.85 1007.08 1006.72 1007.11 1007.63 1008.63 1009.91 1011.53 1011.53 1012.09 1011.29 1010.74 1009.45 1007.69 1006.67 1006.38 1006.45 1006.68 1006.46 1005.91 1005.71
1012.54 1011.36 1011.15 1010.43 1010.40 1011.07 1011.08 1011.19 1010.11 1009.19 1008.52 1007.91 1007.32 1007.03 1006.92 1006.80 1006.84 1006.84 1007.07 1007.21 1007.36 1007.78 1008.39 1008.53 1007.83 1006.79 1006.33 1006.30 1007.05 1008.24 1009.48 1009.91 1011.07 1011.93 1011.83 1010.67 1009.10 1007.77 1006.83 1006.81 1007.02 1007.07 1006.50 1006.33 1006.13
1013.25 1012.47 1011.51 1010.51 1010.67 1010.84 1011.33 1011.02 1010.15 1009.12 1008.62 1008.15 1008.00 1007.86 1007.95 1008.03 1007.87 1007.85 1007.96 1007.41 1007.76 1007.80 1007.89 1008.20 1008.08 1007.19 1006.59 1006.43 1006.83 1007.40 1008.35 1010.16 1011.58 1012.33 1011.93 1010.31 1009.76 1008.57 1007.56 1007.30 1007.36 1007.32 1007.17 1006.73 1006.21
1013.39 1012.79 1011.30 1010.68 1010.93 1011.39 1011.88 1011.34 1010.25 1009.31 1008.89 1008.64 1008.67 1008.80 1009.32 1009.50 1009.35 1009.02 1008.42 1008.44 1008.39 1008.39 1008.30 1008.29 1009.15 1008.58 1007.77 1007.34 1007.48 1008.18 1008.89 1010.27 1011.51 1012.41 1012.34 1011.06 1009.11 1007.92 1007.69 1007.81 1007.97 1007.68 1007.26 1006.84 1006.41
1014.43 1013.55 1011.31 1010.73 1011.99 1012.97 1012.81 1012.13 1010.99 1010.04 1009.35 1009.24 1009.52 1009.90 1010.31 1010.60 1010.43 1009.83 1009.22 1008.91 1008.85 1008.94 1009.07 1009.39 1009.47 1009.72 1009.15 1008.42 1008.35 1008.59 1009.45 1010.23 1011.77 1012.66 1012.47 1011.65 1008.64 1007.81 1007.91 1008.03 1008.02 1007.66 1007.13 1006.54 1006.11
1016.06 1015.10 1012.09 1011.69 1013.38 1014.19 1013.70 1012.84 1011.92 1011.05 1010.71 1010.54 1010.63 1011.09 1011.59 1011.53 1011.43 1010.39 1009.67 1009.28 1009.63 1009.73 1009.66 1010.09 1010.42 1010.75 1009.98 1009.59 1009.31 1009.51 1010.21 1010.95 1011.90 1012.81 1012.19 1011.65 1009.12 1008.10 1007.94 1007.99 1007.89 1007.74 1007.07 1006.71 1006.25
1016.67 1016.21 1015.03 1014.36 1014.91 1015.25 1015.34 1014.46 1013.36 1012.32 1011.89 1011.84 1011.58 1011.76 1012.27 1012.08 1011.85 1011.72 1010.68 1010.11 1009.95 1010.13 1010.15 1010.59 1011.30 1011.17 1011.04 1010.26 1010.21 1010.49 1010.65 1010.93 1011.49 1012.29 1011.51 1010.92 1009.34 1009.25 1008.67 1008.65 1008.23 1007.91 1007.49 1007.17 1006.69
1017.66 1018.31 1017.94 1017.05 1016.50 1016.48 1016.11 1015.74 1015.03 1014.29 1013.35 1012.89 1012.95 1013.28 1013.35 1013.08 1012.26 1011.62 1010.96 1010.45 1010.25 1010.15 1010.40 1011.06 1011.84 1011.65 1011.21 1010.74 1010.35 1010.20 1010.25 1010.61 1011.10 1011.18 1011.42 1010.25 1010.31 1009.57 1009.73 1009.42 1008.70 1008.21 1007.75 1007.51 1006.98
1018.84 1019.01 1018.36 1017.91 1017.32 1016.91 1016.60 1015.99 1015.33 1014.84 1014.55 1013.73 1013.67 1013.54 1013.59 1013.45 1012.58 1011.72 1011.60 1011.10 1010.69 1010.27 1010.63 1011.30 1011.63 1011.69 1011.44 1010.81 1010.46 1010.15 1010.01 1010.15 1010.28 1010.38 1010.48 1010.51 1010.14 1010.21 1009.94 1009.48 1009.13 1008.57 1008.02 1007.61 1007.31
1019.22 1018.93 1018.87 1018.27 1017.75 1017.35 1016.72 1016.27 1015.65 1015.68 1014.91 1014.20 1014.21 1013.87 1013.02 1012.43 1011.98 1011.53 1011.08 1010.69 1010.53 1010.53 1010.95 1011.70 1012.15 1012.61 1011.88 1011.15 1010.73 1010.25 1009.49 1009.60 1009.61 1009.65 1009.95 1010.26 1009.99 1009.92 1009.82 1009.49 1009.25 1008.45 1007.97 1007.74 1007.62
Wind_Speed
16 15 15 14 13 13 13 13 13 13 12 12 11 10 11 12 13 3 7 12 9 11 1 2 1 3 3 2 3 4 5 4 6 6 4 3 6 4 4 1 6 5 2 6 8
16 15 14 14 13 12 12 12 12 12 12 11 11 10 10 11 4 8 13 10 13 5 3 2 4 5 3 2 1 5 4 8 5 4 3 1 3 4 6 8 2 3 4 3 4
17 16 15 14 13 12 11 12 12 11 11 11 10 9 9 8 3 6 6 14 11 5 2 2 3 3 3 2 3 4 6 5 4 5 3 3 4 4 2 7 6 4 4 4 2
18 17 16 14 12 12 12 11 11 11 10 10 10 9 9 2 3 2 3 14 10 5 2 4 4 4 4 5 4 3 5 5 3 4 4 5 4 2 5 11 7 8 4 5 7
19 18 16 15 13 11 11 11 10 10 9 8 8 7 2 2 9 2 13 12 6 5 5 4 4 4 5 3 5 4 4 4 6 7 6 6 9 8 6 12 12 10 6 12 11
19 19 18 16 14 12 11 11 10 9 9 8 6 4 2 3 2 8 9 6 5 5 5 5 6 6 4 2 4 4 2 4 5 6 5 5 9 5 4 9 10 8 11 9 12
18 19 19 17 16 14 12 11 10 9 7 6 4 2 2 10 3 7 8 6 6 4 5 4 4 4 4 2 2 0 2 4 5 3 6 4 8 5 7 6 9 10 8 7 9
19 18 19 18 17 16 14 13 11 9 6 5 5 1 8 4 2 5 4 3 5 6 2 4 6 1 2 4 6 3 5 2 5 2 6 7 9 6 4 3 8 10 8 8 6
20 19 18 18 17 16 16 16 13 7 6 7 2 1 8 5 3 5 6 3 5 5 4 1 4 3 5 5 5 6 3 2 7 3 4 5 5 5 1 1 6 9 9 9 8
22 21 19 18 17 15 16 13 7 8 5 4 4 2 5 3 4 4 3 3 2 4 2 4 5 4 4 5 4 3 1 3 5 4 3 7 6 9 8 4 7 7 8 9 10
23 23 21 18 17 12 8 1 3 1 3 8 5 5 4 5 2 4 5 6 1 3 3 3 4 6 9 7 5 2 4 5 7 11 3 8 6 9 9 8 10 8 6 7 10
25 24 23 19 17 14 2 1 2 3 9 11 9 6 5 3 4 2 8 5 5 5 3 6 5 9 5 4 5 5 4 8 9 13 7 8 8 8 7 7 6 7 10 7 7
25 25 24 19 20 2 3 5 3 1 2 7 5 5 5 8 6 6 8 4 4 4 5 6 8 5 6 3 4 4 5 5 9 4 3 2 4 6 6 4 7 7 7 7 8
26 25 24 22 1 2 4 1 4 5 3 5 3 5 5 7 5 10 8 7 1 8 8 6 6 6 5 5 6 4 8 7 5 1 5 4 11 4 5 7 6 9 9 10 10
25 25 22 7 5 2 1 4 1 3 4 2 2 3 4 8 2 2 5 4 8 5 6 9 3 3 4 10 6 10 5 6 5 5 2 3 1 9 3 5 10 9 10 10 10
28 26 20 1 2 7 6 4 3 5 6 1 4 5 5 2 2 2 3 4 3 6 3 9 2 6 8 2 7 3 1 5 4 3 3 8 6 5 6 9 6 5 9 10 9
29 29 15 2 4 1 4 4 6 3 5 6 4 1 3 4 3 2 2 3 6 1 5 3 10 6 4 5 5 4 5 4 5 3 11 8 6 11 7 9 8 10 12 10 9
30 29 2 4 2 4 3 5 3 3 2 3 3 6 2 1 0 2 3 2 5 4 2 5 11 7 4 9 13 7 9 7 7 5 8 3 7 7 8 6 6 5 9 10 8
28 4 2 4 5 1 6 2 5 2 3 4 7 2 1 2 3 4 1 3 3 4 5 4 6 5 5 6 10 3 4 4 2 2 3 5 7 6 5 4 5 7 8 7 7
5 4 4 6 3 3 5 4 3 1 4 2 1 4 3 5 5 3 1 1 4 1 2 4 4 5 6 2 1 4 6 2 1 4 7 4 4 6 6 4 5 8 8 7 8
3 5 4 6 2 5 2 4 3 2 3 1 3 5 5 4 3 3 4 3 4 4 4 1 3 7 1 4 5 1 2 4 3 2 5 8 6 6 3 3 6 8 7 7 8
3 4 4 4 5 2 2 5 7 5 6 5 4 4 4 7 5 3 3 4 7 4 3 5 4 5 11 4 3 1 3 4 5 4 5 3 11 3 4 4 6 9 9 7 7
3 3 5 4 3 3 6 5 4 7 5 5 5 6 5 3 4 3 2 8 7 5 2 4 1 2 6 1 1 3 2 4 4 3 7 5 8 2 7 7 10 9 8 7 9
3 5 6 6 2 3 5 6 8 9 3 6 6 1 5 3 3 7 10 6 1 5 11 4 2 5 6 3 2 6 5 7 7 4 4 8 17 13 15 12 14 10 8 7 6
4 1 1 4 3 2 2 2 5 6 8 4 2 2 3 5 8 10 11 6 10 15 9 7 6 8 13 16 13 13 13 10 8 9 8 12 10 14 6 9 7 5 6 7 6
3 3 4 3 4 3 2 3 5 8 3 5 4 7 7 6 12 15 11 8 9 5 4 3 5 3 7 11 10 13 10 10 13 13 10 11 15 2 5 6 11 8 7 5 7
2 2 1 3 4 2 3 3 3 10 8 11 7 12 11 12 7 14 13 13 11 5 6 4 4 2 5 1 4 6 7 7 4 3 3 4 5 3 5 7 9 11 9 4 5
Wind_Direction
335 330 327 323 320 317 314 313 308 306 305 305 305 312 318 316 320 343 237 218 191 225 19 329 148 148 78 104 109 120 77 194 215 167 234 333 18 332 303 15 307 332 260 244 115
337 334 329 323 318 315 313 309 307 306 303 302 304 311 313 322 292 251 245 223 217 137 147 138 135 124 63 96 55 104 139 213 217 203 260 321 321 322 350 338 182 298 328 4 60
337 335 333 328 322 315 310 308 304 303 300 303 302 305 310 324 292 245 201 206 203 218 94 109 111 108 99 120 179 154 183 212 250 233 242 273 285 216 239 293 220 284 277 272 314
337 336 335 328 321 315 309 307 304 305 303 300 299 304 310 287 133 15 204 168 173 160 93 90 77 89 124 170 184 140 231 198 254 239 284 269 268 292 202 253 254 255 195 238 236
338 336 332 327 320 312 306 304 302 302 298 295 297 297 332 296 253 91 121 143 116 122 143 137 128 137 161 191 147 180 239 216 242 273 245 268 259 247 239 260 270 260 200 209 218
337 336 334 327 317 307 300 297 295 291 289 287 287 297 281 291 126 145 133 129 143 130 166 152 179 195 162 193 168 210 224 285 294 262 243 234 260 140 280 265 285 288 272 209 209
333 334 334 329 321 312 303 293 282 283 279 274 242 225 297 235 30 154 146 163 175 179 161 207 173 142 145 136 208 224 321 333 248 237 244 171 295 202 243 270 280 290 283 262 217
333 333 334 330 323 315 309 301 291 276 249 238 207 212 249 266 36 153 168 206 221 225 244 242 154 135 122 128 24 74 44 4 279 225 255 145 273 286 274 246 284 293 300 297 253
333 331 329 328 326 321 316 305 288 252 222 169 133 200 272 316 263 219 161 192 172 195 216 260 101 92 32 77 15 7 227 225 308 247 271 173 277 262 316 4 273 288 295 295 281
334 328 325 325 326 326 324 311 104 121 131 178 257 318 268 201 235 195 192 107 294 355 75 64 52 78 44 76 218 225 261 259 252 274 198 289 251 287 295 327 282 271 270 274 276
333 329 325 322 323 327 346 321 24 326 217 210 192 253 278 280 264 215 143 115 136 58 154 18 85 206 217 197 177 189 206 242 255 260 228 252 252 264 284 317 307 297 286 270 268
332 332 327 321 319 316 177 213 206 194 301 227 241 248 269 37 331 290 127 139 140 202 101 27 236 229 194 184 205 213 246 260 276 261 165 259 257 252 243 245 226 278 302 296 293
331 333 330 321 318 130 200 231 113 71 249 291 183 192 201 142 215 252 152 151 162 161 179 168 235 116 174 232 199 208 188 237 225 308 265 329 293 250 256 267 287 272 231 261 267
331 334 332 329 296 304 252 154 321 172 13 268 246 257 133 143 253 205 176 146 165 204 154 225 257 202 183 224 164 250 219 241 252 155 240 124 281 238 240 255 269 278 294 285 287
329 332 333 324 295 216 213 325 321 63 345 169 179 106 164 157 265 196 173 91 197 180 122 242 197 160 186 222 143 243 218 231 252 230 57 284 301 276 230 274 268 253 262 268 267
328 326 334 111 222 249 307 334 72 43 258 329 127 161 133 241 279 101 136 87 160 171 229 241 258 182 212 256 171 224 181 45 52 87 237 230 208 190 221 238 275 267 256 262 275
323 316 314 196 234 276 306 49 48 165 315 354 5 359 210 208 215 194 181 179 194 129 248 301 250 244 165 292 283 126 80 315 317 307 262 222 238 251 234 247 225 269 302 287 269
320 309 234 214 270 331 57 56 180 265 338 3 326 302 257 58 317 133 140 267 243 198 158 196 280 177 189 192 226 184 159 177 242 240 272 29 242 248 217 253 318 316 277 294 303
317 316 327 281 208 330 78 96 212 211 305 320 309 260 308 79 45 28 291 245 270 162 177 193 266 256 222 194 149 194 178 200 170 42 345 224 295 305 279 12 357 333 357 324 321
314 348 329 353 108 59 79 234 246 274 312 343 241 46 26 1 3 0 183 275 28 354 157 253 280 253 280 141 11 167 150 120 19 293 264 239 264 243 267 255 315 341 336 337 330
6 40 274 349 36 44 165 237 289 37 5 330 28 26 36 22 337 282 259 92 9 325 291 198 65 291 225 222 218 164 177 66 96 164 260 291 251 218 248 233 285 299 281 293 300
3 55 308 5 44 24 21 325 314 355 4 34 82 80 50 9 313 275 310 23 10 348 347 347 158 224 258 324 304 85 130 148 161 212 232 238 262 310 281 250 264 295 300 300 291
41 288 319 55 53 12 321 322 344 6 37 9 97 3 58 233 271 271 292 314 41 337 344 59 222 283 307 204 62 82 110 110 95 121 215 234 274 321 302 303 297 297 303 324 323
35 14 337 25 30 62 10 336 343 349 62 8 344 355 357 285 284 272 275 277 22 324 321 112 290 216 241 265 218 271 223 205 172 206 246 231 282 294 291 304 295 280 306 320 343
21 47 156 334 4 19 106 248 296 308 338 35 304 218 323 280 298 257 268 296 308 289 264 138 230 224 237 249 262 256 253 245 207 230 232 277 265 280 323 313 317 322 320 324 343
65 20 1 286 301 306 178 253 271 269 285 283 219 317 285 246 252 279 286 274 248 253 187 172 239 220 263 255 258 256 253 255 254 255 248 263 274 101 285 326 339 306 311 326 329
308 338 85 314 328 278 218 235 298 336 268 262 328 321 294 270 305 282 259 253 242 219 195 176 165 145 257 338 319 273 238 222 232 208 178 223 237 289 305 311 292 305 309 302 332